Time,TemperatureF,DewpointF,PressureIn,WindDirection,WindDirectionDegrees,WindSpeedMPH,WindSpeedGustMPH,Humidity,HourlyPrecipIn,Conditions,Clouds,dailyrainin,SoftwareType,DateUTC
2013-09-02 00:03:00,85.7,68.1,29.59,SSE,158,7.6,13.0,56,0.00,,,0.00,WUHU216HW,2013-09-02 05:03:00,
2013-09-02 00:08:00,85.7,68.1,29.60,SW,225,7.8,12.8,56,0.00,,,0.00,WUHU216HW,2013-09-02 05:08:00,
2013-09-02 00:13:00,85.5,68.5,29.60,SW,225,7.8,12.8,57,0.00,,,0.00,WUHU216HW,2013-09-02 05:13:00,
2013-09-02 00:18:00,85.3,68.3,29.60,SSE,158,8.7,9.8,57,0.00,,,0.00,WUHU216HW,2013-09-02 05:18:00,
2013-09-02 00:23:00,85.3,68.9,29.60,SSW,203,7.6,10.5,58,0.00,,,0.00,WUHU216HW,2013-09-02 05:23:00,
2013-09-02 00:28:00,85.3,68.9,29.60,SSW,203,4.9,10.5,58,0.00,,,0.00,WUHU216HW,2013-09-02 05:28:00,
2013-09-02 00:33:00,85.1,68.7,29.60,WSW,248,4.7,10.5,58,0.00,,,0.00,WUHU216HW,2013-09-02 05:33:00,
2013-09-02 00:38:00,85.1,69.2,29.61,WSW,248,4.0,10.5,59,0.00,,,0.00,WUHU216HW,2013-09-02 05:38:00,
2013-09-02 00:43:00,85.0,69.6,29.60,WSW,248,4.0,9.8,60,0.00,,,0.00,WUHU216HW,2013-09-02 05:43:00,
2013-09-02 00:48:00,85.0,70.0,29.60,SSW,203,8.1,9.8,61,0.00,,,0.00,WUHU216HW,2013-09-02 05:48:00,
2013-09-02 00:53:00,85.0,69.6,29.60,SW,225,3.8,8.1,60,0.00,,,0.00,WUHU216HW,2013-09-02 05:53:00,
2013-09-02 00:58:00,84.8,69.8,29.61,SW,225,5.4,8.1,61,0.00,,,0.00,WUHU216HW,2013-09-02 05:58:00,
2013-09-02 01:03:00,84.6,70.2,29.61,SSW,203,2.7,5.8,62,0.00,,,0.00,WUHU216HW,2013-09-02 06:03:00,
2013-09-02 01:08:00,84.4,70.0,29.61,SSW,203,7.6,7.6,62,0.00,,,0.00,WUHU216HW,2013-09-02 06:08:00,
2013-09-02 01:13:00,84.4,70.5,29.61,SSW,203,7.2,8.9,63,0.00,,,0.00,WUHU216HW,2013-09-02 06:13:00,
2013-09-02 01:18:00,84.2,69.8,29.61,SW,225,5.4,8.9,62,0.00,,,0.00,WUHU216HW,2013-09-02 06:18:00,
2013-09-02 01:23:00,84.2,69.8,29.61,SSW,203,4.7,7.2,62,0.00,,,0.00,WUHU216HW,2013-09-02 06:23:00,
2013-09-02 01:28:00,84.2,70.3,29.61,SSW,203,6.9,7.4,63,0.00,,,0.00,WUHU216HW,2013-09-02 06:28:00,
2013-09-02 01:33:00,84.1,70.1,29.61,SSW,203,2.2,9.2,63,0.00,,,0.00,WUHU216HW,2013-09-02 06:33:00,
2013-09-02 01:38:00,84.1,70.1,29.61,SSW,203,5.6,9.2,63,0.00,,,0.00,WUHU216HW,2013-09-02 06:38:00,
2013-09-02 01:43:00,83.9,70.4,29.61,SSE,158,5.4,9.6,64,0.00,,,0.00,WUHU216HW,2013-09-02 06:43:00,
2013-09-02 01:48:00,83.9,69.9,29.61,SW,225,3.6,9.6,63,0.00,,,0.00,WUHU216HW,2013-09-02 06:48:00,
2013-09-02 01:53:00,83.9,70.8,29.62,South,180,1.6,5.6,65,0.00,,,0.00,WUHU216HW,2013-09-02 06:53:00,
2013-09-02 01:58:00,83.9,70.8,29.62,SSW,203,2.5,5.6,65,0.00,,,0.00,WUHU216HW,2013-09-02 06:58:00,
2013-09-02 02:03:00,83.7,70.7,29.61,SSW,203,6.3,6.9,65,0.00,,,0.00,WUHU216HW,2013-09-02 07:03:00,
2013-09-02 02:08:00,83.5,70.9,29.61,SSW,203,3.8,6.9,66,0.00,,,0.00,WUHU216HW,2013-09-02 07:08:00,
2013-09-02 02:13:00,83.3,70.7,29.61,SSW,203,6.5,7.4,66,0.00,,,0.00,WUHU216HW,2013-09-02 07:13:00,
2013-09-02 02:18:00,83.2,71.0,29.61,SSE,158,4.7,7.4,67,0.00,,,0.00,WUHU216HW,2013-09-02 07:18:00,
2013-09-02 02:23:00,83.2,71.0,29.61,SW,225,6.3,8.9,67,0.00,,,0.00,WUHU216HW,2013-09-02 07:23:00,
2013-09-02 02:28:00,83.0,70.8,29.61,SSW,203,2.7,8.9,67,0.00,,,0.00,WUHU216HW,2013-09-02 07:28:00,
2013-09-02 02:33:00,82.8,70.7,29.61,SSW,203,2.5,7.2,67,0.00,,,0.00,WUHU216HW,2013-09-02 07:33:00,
2013-09-02 02:38:00,82.8,70.7,29.61,SW,225,4.3,6.7,67,0.00,,,0.00,WUHU216HW,2013-09-02 07:38:00,
2013-09-02 02:43:00,82.8,70.7,29.61,SSW,203,5.4,7.8,67,0.00,,,0.00,WUHU216HW,2013-09-02 07:43:00,
2013-09-02 02:48:00,82.6,70.9,29.61,SSW,203,3.4,7.8,68,0.00,,,0.00,WUHU216HW,2013-09-02 07:48:00,
2013-09-02 02:53:00,82.8,70.7,29.61,WSW,248,6.3,6.5,67,0.00,,,0.00,WUHU216HW,2013-09-02 07:53:00,
2013-09-02 02:58:00,82.6,70.5,29.61,SSW,203,3.6,6.9,67,0.00,,,0.00,WUHU216HW,2013-09-02 07:58:00,
2013-09-02 03:03:00,82.6,70.0,29.61,SW,225,1.8,6.9,66,0.00,,,0.00,WUHU216HW,2013-09-02 08:03:00,
2013-09-02 03:08:00,82.4,70.7,29.61,SSW,203,6.9,6.9,68,0.00,,,0.00,WUHU216HW,2013-09-02 08:08:00,
2013-09-02 03:13:00,82.4,69.8,29.61,SSW,203,4.7,8.3,66,0.00,,,0.00,WUHU216HW,2013-09-02 08:13:00,
2013-09-02 03:18:00,82.4,70.7,29.61,SSW,203,3.6,8.3,68,0.00,,,0.00,WUHU216HW,2013-09-02 08:18:00,
2013-09-02 03:23:00,82.3,70.6,29.61,South,180,4.3,7.8,68,0.00,,,0.00,WUHU216HW,2013-09-02 08:23:00,
2013-09-02 03:28:00,82.3,70.1,29.61,SW,225,2.9,5.4,67,0.00,,,0.00,WUHU216HW,2013-09-02 08:28:00,
2013-09-02 03:33:00,82.1,69.9,29.62,SSW,203,2.5,5.4,67,0.00,,,0.00,WUHU216HW,2013-09-02 08:33:00,
2013-09-02 03:38:00,82.1,70.4,29.62,SW,225,4.7,4.9,68,0.00,,,0.00,WUHU216HW,2013-09-02 08:38:00,
2013-09-02 03:43:00,81.9,70.8,29.62,SSW,203,1.6,5.8,69,0.00,,,0.00,WUHU216HW,2013-09-02 08:43:00,
2013-09-02 03:48:00,82.4,71.2,29.62,SW,225,3.8,5.8,69,0.00,,,0.00,WUHU216HW,2013-09-02 08:48:00,
2013-09-02 03:53:00,82.3,70.6,29.62,WSW,248,1.8,5.8,68,0.00,,,0.00,WUHU216HW,2013-09-02 08:53:00,
2013-09-02 03:58:00,81.9,70.3,29.62,SSW,203,1.8,4.7,68,0.00,,,0.00,WUHU216HW,2013-09-02 08:58:00,
2013-09-02 04:03:00,81.7,71.0,29.62,SSW,203,2.9,3.6,70,0.00,,,0.00,WUHU216HW,2013-09-02 09:03:00,
2013-09-02 04:08:00,81.4,70.7,29.62,South,180,2.5,3.8,70,0.00,,,0.00,WUHU216HW,2013-09-02 09:08:00,
2013-09-02 04:13:00,81.0,70.4,29.62,WSW,248,2.7,3.8,70,0.00,,,0.00,WUHU216HW,2013-09-02 09:13:00,
2013-09-02 04:18:00,81.0,70.4,29.62,South,180,1.1,3.6,70,0.00,,,0.00,WUHU216HW,2013-09-02 09:18:00,
2013-09-02 04:23:00,80.8,70.6,29.62,SSE,158,1.1,3.6,71,0.00,,,0.00,WUHU216HW,2013-09-02 09:23:00,
2013-09-02 04:28:00,80.8,70.6,29.62,SW,225,1.6,3.6,71,0.00,,,0.00,WUHU216HW,2013-09-02 09:28:00,
2013-09-02 04:33:00,81.0,70.7,29.63,WSW,248,1.1,3.1,71,0.00,,,0.00,WUHU216HW,2013-09-02 09:33:00,
2013-09-02 04:38:00,81.5,71.3,29.63,South,180,2.5,3.1,71,0.00,,,0.00,WUHU216HW,2013-09-02 09:38:00,
2013-09-02 04:43:00,81.2,70.9,29.63,South,180,2.2,2.7,71,0.00,,,0.00,WUHU216HW,2013-09-02 09:43:00,
2013-09-02 04:48:00,81.0,70.7,29.63,SW,225,0.9,2.7,71,0.00,,,0.00,WUHU216HW,2013-09-02 09:48:00,
2013-09-02 04:53:00,80.6,70.4,29.63,SSW,203,1.1,2.5,71,0.00,,,0.00,WUHU216HW,2013-09-02 09:53:00,
2013-09-02 04:58:00,80.5,70.7,29.63,South,180,2.0,2.5,72,0.00,,,0.00,WUHU216HW,2013-09-02 09:58:00,
2013-09-02 05:03:00,79.9,70.5,29.63,SSW,203,1.6,2.9,73,0.00,,,0.00,WUHU216HW,2013-09-02 10:03:00,
2013-09-02 05:08:00,79.7,70.3,29.63,SSE,158,2.5,3.6,73,0.00,,,0.00,WUHU216HW,2013-09-02 10:08:00,
2013-09-02 05:13:00,79.6,70.6,29.63,SSW,203,2.2,4.5,74,0.00,,,0.00,WUHU216HW,2013-09-02 10:13:00,
2013-09-02 05:18:00,79.4,70.7,29.63,SSW,203,3.1,4.5,75,0.00,,,0.00,WUHU216HW,2013-09-02 10:18:00,
2013-09-02 05:23:00,79.4,70.7,29.63,SSW,203,3.6,4.0,75,0.00,,,0.00,WUHU216HW,2013-09-02 10:23:00,
2013-09-02 05:28:00,79.4,70.7,29.63,SW,225,1.8,4.0,75,0.00,,,0.00,WUHU216HW,2013-09-02 10:28:00,
2013-09-02 05:33:00,79.7,70.8,29.63,SW,225,1.3,3.6,74,0.00,,,0.00,WUHU216HW,2013-09-02 10:33:00,
2013-09-02 05:38:00,79.9,70.5,29.63,SSW,203,2.5,3.6,73,0.00,,,0.00,WUHU216HW,2013-09-02 10:38:00,
2013-09-02 05:43:00,79.7,70.3,29.63,SSW,203,2.0,3.4,73,0.00,,,0.00,WUHU216HW,2013-09-02 10:43:00,
2013-09-02 05:48:00,79.4,70.4,29.63,SSW,203,2.5,3.6,74,0.00,,,0.00,WUHU216HW,2013-09-02 10:48:00,
2013-09-02 05:53:00,79.2,70.2,29.63,SSW,203,1.8,3.6,74,0.00,,,0.00,WUHU216HW,2013-09-02 10:53:00,
2013-09-02 05:58:00,78.8,70.2,29.63,South,180,1.8,2.7,75,0.00,,,0.00,WUHU216HW,2013-09-02 10:58:00,
2013-09-02 06:03:00,78.7,70.4,29.63,SSE,158,1.8,2.5,76,0.00,,,0.00,WUHU216HW,2013-09-02 11:03:00,
2013-09-02 06:08:00,78.5,70.7,29.63,SSE,158,2.5,2.5,77,0.00,,,0.00,WUHU216HW,2013-09-02 11:08:00,
2013-09-02 06:13:00,78.1,70.3,29.63,SE,135,1.8,2.7,77,0.00,,,0.00,WUHU216HW,2013-09-02 11:13:00,
2013-09-02 06:18:00,78.1,70.7,29.64,South,180,2.7,3.4,78,0.00,,,0.00,WUHU216HW,2013-09-02 11:18:00,
2013-09-02 06:23:00,78.1,70.7,29.64,SSE,158,2.7,3.4,78,0.00,,,0.00,WUHU216HW,2013-09-02 11:23:00,
2013-09-02 06:28:00,78.3,70.5,29.64,South,180,3.8,3.8,77,0.00,,,0.00,WUHU216HW,2013-09-02 11:28:00,
2013-09-02 06:33:00,78.3,70.5,29.64,South,180,2.7,3.8,77,0.00,,,0.00,WUHU216HW,2013-09-02 11:33:00,
2013-09-02 06:38:00,77.9,70.5,29.64,South,180,2.2,3.8,78,0.00,,,0.00,WUHU216HW,2013-09-02 11:38:00,
2013-09-02 06:43:00,77.8,70.3,29.64,South,180,2.0,3.1,78,0.00,,,0.00,WUHU216HW,2013-09-02 11:43:00,
2013-09-02 06:48:00,77.6,70.1,29.64,South,180,2.0,3.1,78,0.00,,,0.00,WUHU216HW,2013-09-02 11:48:00,
2013-09-02 06:53:00,77.6,70.1,29.65,SSW,203,1.1,2.9,78,0.00,,,0.00,WUHU216HW,2013-09-02 11:53:00,
2013-09-02 06:58:00,77.6,70.1,29.65,WSW,248,0.7,2.7,78,0.00,,,0.00,WUHU216HW,2013-09-02 11:58:00,
2013-09-02 07:03:00,77.8,69.9,29.66,WSW,248,0.0,1.6,77,0.00,,,0.00,WUHU216HW,2013-09-02 12:03:00,
2013-09-02 07:08:00,77.8,70.3,29.66,North,0,2.0,2.2,78,0.00,,,0.00,WUHU216HW,2013-09-02 12:08:00,
2013-09-02 07:13:00,77.4,70.4,29.66,North,0,2.5,2.7,79,0.00,,,0.00,WUHU216HW,2013-09-02 12:13:00,
2013-09-02 07:18:00,77.2,70.2,29.66,North,0,2.5,2.7,79,0.00,,,0.00,WUHU216HW,2013-09-02 12:18:00,
2013-09-02 07:23:00,77.2,69.9,29.67,North,0,2.0,2.7,78,0.00,,,0.00,WUHU216HW,2013-09-02 12:23:00,
2013-09-02 07:28:00,77.4,70.0,29.67,NNE,23,2.5,3.6,78,0.00,,,0.00,WUHU216HW,2013-09-02 12:28:00,
2013-09-02 07:33:00,77.0,70.4,29.67,NNE,23,2.5,4.3,80,0.00,,,0.00,WUHU216HW,2013-09-02 12:33:00,
2013-09-02 07:38:00,76.9,70.2,29.67,NNE,23,1.1,4.5,80,0.00,,,0.00,WUHU216HW,2013-09-02 12:38:00,
2013-09-02 07:43:00,76.9,70.2,29.67,NE,45,2.0,4.5,80,0.00,,,0.00,WUHU216HW,2013-09-02 12:43:00,
2013-09-02 07:48:00,77.0,70.4,29.67,North,0,0.0,4.3,80,0.00,,,0.00,WUHU216HW,2013-09-02 12:48:00,
2013-09-02 07:53:00,77.4,70.4,29.67,NW,315,0.7,3.1,79,0.00,,,0.00,WUHU216HW,2013-09-02 12:53:00,
2013-09-02 07:58:00,77.8,70.3,29.67,NW,315,0.4,1.8,78,0.00,,,0.00,WUHU216HW,2013-09-02 12:58:00,
2013-09-02 08:03:00,77.9,70.5,29.67,West,270,1.1,2.0,78,0.00,,,0.00,WUHU216HW,2013-09-02 13:03:00,
2013-09-02 08:08:00,78.3,70.8,29.67,SW,225,1.1,2.0,78,0.00,,,0.00,WUHU216HW,2013-09-02 13:08:00,
2013-09-02 08:13:00,78.5,71.0,29.68,SSW,203,1.1,2.0,78,0.00,,,0.00,WUHU216HW,2013-09-02 13:13:00,
2013-09-02 08:18:00,78.8,71.0,29.68,West,270,2.5,2.5,77,0.00,,,0.00,WUHU216HW,2013-09-02 13:18:00,
2013-09-02 08:23:00,79.4,71.6,29.69,NW,315,0.4,3.1,77,0.00,,,0.00,WUHU216HW,2013-09-02 13:23:00,
2013-09-02 08:28:00,80.8,72.2,29.68,WSW,248,0.4,3.1,75,0.00,,,0.00,WUHU216HW,2013-09-02 13:28:00,
2013-09-02 08:33:00,81.7,72.2,29.68,West,270,0.0,2.9,73,0.00,,,0.00,WUHU216HW,2013-09-02 13:33:00,
2013-09-02 08:38:00,82.1,72.5,29.68,West,270,1.3,2.9,73,0.00,,,0.00,WUHU216HW,2013-09-02 13:38:00,
2013-09-02 08:43:00,82.3,72.7,29.68,NW,315,1.1,2.7,73,0.00,,,0.00,WUHU216HW,2013-09-02 13:43:00,
2013-09-02 08:48:00,82.4,72.5,29.68,WSW,248,1.1,3.1,72,0.00,,,0.00,WUHU216HW,2013-09-02 13:48:00,
2013-09-02 08:53:00,82.6,72.6,29.69,NW,315,0.7,3.1,72,0.00,,,0.00,WUHU216HW,2013-09-02 13:53:00,
2013-09-02 08:58:00,83.0,72.6,29.68,WNW,293,1.1,3.6,71,0.00,,,0.00,WUHU216HW,2013-09-02 13:58:00,
2013-09-02 09:03:00,83.3,72.5,29.68,WSW,248,1.1,4.0,70,0.00,,,0.00,WUHU216HW,2013-09-02 14:03:00,
2013-09-02 09:08:00,83.9,73.1,29.68,West,270,1.8,4.0,70,0.00,,,0.00,WUHU216HW,2013-09-02 14:08:00,
2013-09-02 09:13:00,84.8,73.1,29.69,WNW,293,4.7,5.4,68,0.00,,,0.00,WUHU216HW,2013-09-02 14:13:00,
2013-09-02 09:18:00,85.0,72.8,29.69,West,270,2.9,6.7,67,0.00,,,0.00,WUHU216HW,2013-09-02 14:18:00,
2013-09-02 09:23:00,85.5,72.8,29.69,WNW,293,3.1,6.9,66,0.00,,,0.00,WUHU216HW,2013-09-02 14:23:00,
2013-09-02 09:28:00,86.4,73.3,29.69,West,270,3.4,8.5,65,0.00,,,0.00,WUHU216HW,2013-09-02 14:28:00,
2013-09-02 09:33:00,87.1,73.4,29.69,NNW,338,0.7,8.5,64,0.00,,,0.00,WUHU216HW,2013-09-02 14:33:00,
2013-09-02 09:38:00,87.5,73.4,29.69,West,270,2.5,6.0,63,0.00,,,0.00,WUHU216HW,2013-09-02 14:38:00,
2013-09-02 09:43:00,87.3,73.2,29.69,WNW,293,4.7,6.0,63,0.00,,,0.00,WUHU216HW,2013-09-02 14:43:00,
2013-09-02 09:48:00,87.3,72.7,29.70,West,270,2.5,7.2,62,0.00,,,0.00,WUHU216HW,2013-09-02 14:48:00,
2013-09-02 09:53:00,87.8,72.8,29.70,West,270,3.8,7.2,61,0.00,,,0.00,WUHU216HW,2013-09-02 14:53:00,
2013-09-02 09:58:00,88.0,72.0,29.70,North,0,3.1,6.5,59,0.00,,,0.00,WUHU216HW,2013-09-02 14:58:00,
2013-09-02 10:03:00,87.8,72.4,29.70,West,270,5.1,5.4,60,0.00,,,0.00,WUHU216HW,2013-09-02 15:03:00,
2013-09-02 10:08:00,88.2,72.7,29.70,WNW,293,4.0,6.9,60,0.00,,,0.00,WUHU216HW,2013-09-02 15:08:00,
2013-09-02 10:13:00,88.6,71.9,29.70,WNW,293,4.7,6.9,58,0.00,,,0.00,WUHU216HW,2013-09-02 15:13:00,
2013-09-02 10:18:00,88.7,72.1,29.70,WNW,293,0.9,4.7,58,0.00,,,0.00,WUHU216HW,2013-09-02 15:18:00,
2013-09-02 10:23:00,89.5,72.2,29.70,WSW,248,4.7,5.8,57,0.00,,,0.00,WUHU216HW,2013-09-02 15:23:00,
2013-09-02 10:28:00,90.9,73.0,29.70,West,270,2.9,5.8,56,0.00,,,0.00,WUHU216HW,2013-09-02 15:28:00,
2013-09-02 10:33:00,92.0,72.9,29.70,SSW,203,1.6,4.7,54,0.00,,,0.00,WUHU216HW,2013-09-02 15:33:00,
2013-09-02 10:38:00,92.2,71.9,29.70,WNW,293,2.2,4.7,52,0.00,,,0.00,WUHU216HW,2013-09-02 15:38:00,
2013-09-02 10:43:00,91.3,71.1,29.69,North,0,3.6,4.7,52,0.00,,,0.00,WUHU216HW,2013-09-02 15:43:00,
2013-09-02 10:48:00,90.0,71.7,29.69,ESE,113,1.1,5.1,55,0.00,,,0.00,WUHU216HW,2013-09-02 15:48:00,
2013-09-02 10:53:00,90.7,72.3,29.69,NW,315,0.9,5.1,55,0.00,,,0.00,WUHU216HW,2013-09-02 15:53:00,
2013-09-02 10:58:00,91.6,72.0,29.70,West,270,4.0,4.9,53,0.00,,,0.00,WUHU216HW,2013-09-02 15:58:00,
2013-09-02 11:03:00,92.2,71.9,29.70,NNW,338,2.2,6.5,52,0.00,,,0.00,WUHU216HW,2013-09-02 16:03:00,
2013-09-02 11:08:00,92.2,71.4,29.70,North,0,0.4,6.5,51,0.00,,,0.00,WUHU216HW,2013-09-02 16:08:00,
2013-09-02 11:13:00,91.8,71.7,29.69,WSW,248,4.0,5.6,52,0.00,,,0.00,WUHU216HW,2013-09-02 16:13:00,
2013-09-02 11:18:00,92.5,71.7,29.69,WSW,248,4.7,6.3,51,0.00,,,0.00,WUHU216HW,2013-09-02 16:18:00,
2013-09-02 11:23:00,92.9,71.5,29.70,NNW,338,3.6,6.3,50,0.00,,,0.00,WUHU216HW,2013-09-02 16:23:00,
2013-09-02 11:28:00,93.8,71.0,29.69,WNW,293,4.7,6.9,48,0.00,,,0.00,WUHU216HW,2013-09-02 16:28:00,
2013-09-02 11:33:00,94.3,71.6,29.69,West,270,3.4,7.6,48,0.00,,,0.00,WUHU216HW,2013-09-02 16:33:00,
2013-09-02 11:38:00,94.7,71.9,29.69,WSW,248,1.8,7.6,48,0.00,,,0.00,WUHU216HW,2013-09-02 16:38:00,
2013-09-02 11:43:00,95.2,71.8,29.69,North,0,0.7,3.6,47,0.00,,,0.00,WUHU216HW,2013-09-02 16:43:00,
2013-09-02 11:48:00,94.1,70.7,29.68,SSE,158,0.7,6.3,47,0.00,,,0.00,WUHU216HW,2013-09-02 16:48:00,
2013-09-02 11:53:00,93.8,71.0,29.68,NNW,338,1.8,6.3,48,0.00,,,0.00,WUHU216HW,2013-09-02 16:53:00,
2013-09-02 11:58:00,93.6,70.9,29.68,North,0,4.3,5.6,48,0.00,,,0.00,WUHU216HW,2013-09-02 16:58:00,
2013-09-02 12:03:00,93.2,70.6,29.68,NNE,23,1.3,6.3,48,0.00,,,0.00,WUHU216HW,2013-09-02 17:03:00,
2013-09-02 12:08:00,92.5,70.6,29.68,NNW,338,0.4,6.3,49,0.00,,,0.00,WUHU216HW,2013-09-02 17:08:00,
2013-09-02 12:13:00,92.3,70.4,29.68,North,0,0.9,4.3,49,0.00,,,0.00,WUHU216HW,2013-09-02 17:13:00,
2013-09-02 12:18:00,92.5,71.2,29.68,SSW,203,2.2,2.9,50,0.00,,,0.00,WUHU216HW,2013-09-02 17:18:00,
2013-09-02 12:23:00,93.8,71.0,29.68,NNE,23,0.7,2.5,48,0.00,,,0.00,WUHU216HW,2013-09-02 17:23:00,
2013-09-02 12:28:00,94.9,71.5,29.68,NNE,23,4.0,8.9,47,0.00,,,0.00,WUHU216HW,2013-09-02 17:28:00,
2013-09-02 12:33:00,95.2,71.8,29.67,NW,315,5.6,8.9,47,0.00,,,0.00,WUHU216HW,2013-09-02 17:33:00,
2013-09-02 12:38:00,96.1,71.9,29.67,NNW,338,3.8,6.0,46,0.00,,,0.00,WUHU216HW,2013-09-02 17:38:00,
2013-09-02 12:43:00,95.9,71.1,29.67,North,0,5.4,8.1,45,0.00,,,0.00,WUHU216HW,2013-09-02 17:43:00,
2013-09-02 12:48:00,96.3,71.5,29.67,North,0,5.4,8.1,45,0.00,,,0.00,WUHU216HW,2013-09-02 17:48:00,
2013-09-02 12:53:00,95.8,70.9,29.66,North,0,0.9,5.4,45,0.00,,,0.00,WUHU216HW,2013-09-02 17:53:00,
2013-09-02 12:58:00,94.9,70.7,29.66,East,90,0.4,7.4,46,0.00,,,0.00,WUHU216HW,2013-09-02 17:58:00,
2013-09-02 13:03:00,94.7,70.7,29.66,South,180,1.1,7.4,46,0.00,,,0.00,WUHU216HW,2013-09-02 18:03:00,
2013-09-02 13:08:00,95.0,70.9,29.66,South,180,1.8,6.9,46,0.00,,,0.00,WUHU216HW,2013-09-02 18:08:00,
2013-09-02 13:13:00,95.2,69.8,29.66,ENE,68,4.3,6.9,44,0.00,,,0.00,WUHU216HW,2013-09-02 18:13:00,
2013-09-02 13:18:00,95.4,69.3,29.66,NE,45,4.7,6.3,43,0.00,,,0.00,WUHU216HW,2013-09-02 18:18:00,
2013-09-02 13:23:00,95.9,69.8,29.66,NE,45,4.0,7.4,43,0.00,,,0.00,WUHU216HW,2013-09-02 18:23:00,
2013-09-02 13:28:00,96.5,69.0,29.65,SSE,158,3.6,7.4,41,0.00,,,0.00,WUHU216HW,2013-09-02 18:28:00,
2013-09-02 13:33:00,97.6,69.2,29.65,SE,135,3.8,6.0,40,0.00,,,0.00,WUHU216HW,2013-09-02 18:33:00,
2013-09-02 13:38:00,97.4,69.8,29.65,WSW,248,1.1,6.0,41,0.00,,,0.00,WUHU216HW,2013-09-02 18:38:00,
2013-09-02 13:43:00,96.7,71.7,29.64,NNE,23,2.7,7.6,45,0.00,,,0.00,WUHU216HW,2013-09-02 18:43:00,
2013-09-02 13:48:00,95.8,70.9,29.64,NNE,23,7.2,9.2,45,0.00,,,0.00,WUHU216HW,2013-09-02 18:48:00,
2013-09-02 13:53:00,94.9,71.5,29.64,NNW,338,3.6,9.2,47,0.00,,,0.00,WUHU216HW,2013-09-02 18:53:00,
2013-09-02 13:58:00,95.0,70.9,29.64,NNW,338,4.0,7.6,46,0.00,,,0.00,WUHU216HW,2013-09-02 18:58:00,
2013-09-02 14:03:00,95.4,70.7,29.64,ENE,68,1.1,6.5,45,0.00,,,0.00,WUHU216HW,2013-09-02 19:03:00,
2013-09-02 14:08:00,94.9,69.5,29.63,NNE,23,4.0,6.5,44,0.00,,,0.00,WUHU216HW,2013-09-02 19:08:00,
2013-09-02 14:13:00,94.5,69.1,29.63,NNE,23,1.8,5.8,44,0.00,,,0.00,WUHU216HW,2013-09-02 19:13:00,
2013-09-02 14:18:00,94.5,67.8,29.63,NNE,23,4.9,6.3,42,0.00,,,0.00,WUHU216HW,2013-09-02 19:18:00,
2013-09-02 14:23:00,94.5,67.8,29.63,NNW,338,1.1,6.3,42,0.00,,,0.00,WUHU216HW,2013-09-02 19:23:00,
2013-09-02 14:28:00,95.4,68.6,29.62,North,0,0.4,4.9,42,0.00,,,0.00,WUHU216HW,2013-09-02 19:28:00,
2013-09-02 14:33:00,95.9,67.8,29.62,East,90,2.5,3.1,40,0.00,,,0.00,WUHU216HW,2013-09-02 19:33:00,
2013-09-02 14:38:00,95.4,69.3,29.62,ENE,68,2.5,6.3,43,0.00,,,0.00,WUHU216HW,2013-09-02 19:38:00,
2013-09-02 14:43:00,95.0,69.7,29.61,NNE,23,1.1,6.3,44,0.00,,,0.00,WUHU216HW,2013-09-02 19:43:00,
2013-09-02 14:48:00,94.9,69.5,29.62,NE,45,1.6,5.1,44,0.00,,,0.00,WUHU216HW,2013-09-02 19:48:00,
2013-09-02 14:53:00,95.0,69.7,29.61,ESE,113,0.9,6.7,44,0.00,,,0.00,WUHU216HW,2013-09-02 19:53:00,
2013-09-02 14:58:00,95.2,70.5,29.61,NNW,338,3.4,6.7,45,0.00,,,0.00,WUHU216HW,2013-09-02 19:58:00,
2013-09-02 15:03:00,96.1,69.9,29.61,NNW,338,4.0,5.4,43,0.00,,,0.00,WUHU216HW,2013-09-02 20:03:00,
2013-09-02 15:08:00,96.7,69.8,29.61,NNE,23,2.7,5.4,42,0.00,,,0.00,WUHU216HW,2013-09-02 20:08:00,
2013-09-02 15:13:00,96.7,69.8,29.60,South,180,7.2,12.1,42,0.00,,,0.00,WUHU216HW,2013-09-02 20:13:00,
2013-09-02 15:18:00,96.8,68.6,29.60,ESE,113,3.8,12.1,40,0.00,,,0.00,WUHU216HW,2013-09-02 20:18:00,
2013-09-02 15:23:00,96.7,69.8,29.60,SE,135,2.7,7.4,42,0.00,,,0.00,WUHU216HW,2013-09-02 20:23:00,
2013-09-02 15:28:00,96.3,69.4,29.60,SE,135,4.9,6.3,42,0.00,,,0.00,WUHU216HW,2013-09-02 20:28:00,
2013-09-02 15:33:00,96.3,69.4,29.60,ENE,68,4.0,10.5,42,0.00,,,0.00,WUHU216HW,2013-09-02 20:33:00,
2013-09-02 15:38:00,96.7,69.1,29.59,ENE,68,6.5,10.5,41,0.00,,,0.00,WUHU216HW,2013-09-02 20:38:00,
2013-09-02 15:43:00,97.0,69.4,29.59,NE,45,3.4,8.5,41,0.00,,,0.00,WUHU216HW,2013-09-02 20:43:00,
2013-09-02 15:48:00,96.7,69.1,29.59,ENE,68,1.8,10.5,41,0.00,,,0.00,WUHU216HW,2013-09-02 20:48:00,
2013-09-02 15:53:00,96.7,69.1,29.59,North,0,4.7,10.5,41,0.00,,,0.00,WUHU216HW,2013-09-02 20:53:00,
2013-09-02 15:58:00,96.7,68.4,29.59,NE,45,2.9,9.8,40,0.00,,,0.00,WUHU216HW,2013-09-02 20:58:00,
2013-09-02 16:03:00,96.5,67.4,29.58,NNW,338,2.5,8.1,39,0.00,,,0.00,WUHU216HW,2013-09-02 21:03:00,
2013-09-02 16:08:00,96.8,67.8,29.58,East,90,1.1,7.2,39,0.00,,,0.00,WUHU216HW,2013-09-02 21:08:00,
2013-09-02 16:13:00,97.0,68.0,29.58,North,0,1.8,6.3,39,0.00,,,0.00,WUHU216HW,2013-09-02 21:13:00,
2013-09-02 16:18:00,96.8,67.8,29.58,East,90,7.6,7.6,39,0.00,,,0.00,WUHU216HW,2013-09-02 21:18:00,
2013-09-02 16:23:00,96.5,68.2,29.58,ENE,68,2.5,7.6,40,0.00,,,0.00,WUHU216HW,2013-09-02 21:23:00,
2013-09-02 16:28:00,96.3,68.1,29.58,SE,135,3.1,7.6,40,0.00,,,0.00,WUHU216HW,2013-09-02 21:28:00,
2013-09-02 16:33:00,96.5,68.2,29.58,ENE,68,3.4,5.8,40,0.00,,,0.00,WUHU216HW,2013-09-02 21:33:00,
2013-09-02 16:38:00,96.7,67.6,29.57,NNE,23,2.5,5.8,39,0.00,,,0.00,WUHU216HW,2013-09-02 21:38:00,
2013-09-02 16:43:00,97.4,67.4,29.57,ESE,113,4.0,6.0,38,0.00,,,0.00,WUHU216HW,2013-09-02 21:43:00,
2013-09-02 16:48:00,98.3,68.2,29.57,NNE,23,0.4,8.1,38,0.00,,,0.00,WUHU216HW,2013-09-02 21:48:00,
2013-09-02 16:53:00,99.2,66.5,29.57,SE,135,2.5,8.1,35,0.00,,,0.00,WUHU216HW,2013-09-02 21:53:00,
2013-09-02 16:58:00,98.6,69.4,29.57,East,90,9.8,9.8,39,0.00,,,0.00,WUHU216HW,2013-09-02 21:58:00,
2013-09-02 17:03:00,97.9,67.9,29.57,ESE,113,8.3,9.8,38,0.00,,,0.00,WUHU216HW,2013-09-02 22:03:00,
2013-09-02 17:08:00,96.3,67.2,29.57,East,90,6.9,10.3,39,0.00,,,0.00,WUHU216HW,2013-09-02 22:08:00,
2013-09-02 17:13:00,94.9,67.5,29.57,East,90,5.1,10.5,41,0.00,,,0.00,WUHU216HW,2013-09-02 22:13:00,
2013-09-02 17:18:00,94.3,67.6,29.57,ENE,68,7.6,10.5,42,0.00,,,0.00,WUHU216HW,2013-09-02 22:18:00,
2013-09-02 17:23:00,94.1,66.8,29.56,ENE,68,6.5,9.6,41,0.00,,,0.00,WUHU216HW,2013-09-02 22:23:00,
2013-09-02 17:28:00,94.3,67.0,29.57,NNE,23,3.1,8.9,41,0.00,,,0.00,WUHU216HW,2013-09-02 22:28:00,
2013-09-02 17:33:00,94.9,67.5,29.56,ESE,113,4.3,8.9,41,0.00,,,0.00,WUHU216HW,2013-09-02 22:33:00,
2013-09-02 17:38:00,95.8,68.3,29.56,NNE,23,6.3,6.9,41,0.00,,,0.00,WUHU216HW,2013-09-02 22:38:00,
2013-09-02 17:43:00,95.2,68.5,29.56,NNE,23,4.9,9.2,42,0.00,,,0.00,WUHU216HW,2013-09-02 22:43:00,
2013-09-02 17:48:00,94.5,67.8,29.56,North,0,8.1,9.2,42,0.00,,,0.00,WUHU216HW,2013-09-02 22:48:00,
2013-09-02 17:53:00,94.5,67.2,29.55,NNE,23,5.4,8.5,41,0.00,,,0.00,WUHU216HW,2013-09-02 22:53:00,
2013-09-02 17:58:00,95.0,67.0,29.55,ENE,68,1.1,8.5,40,0.00,,,0.00,WUHU216HW,2013-09-02 22:58:00,
2013-09-02 18:03:00,95.0,67.6,29.55,NNE,23,2.2,7.6,41,0.00,,,0.00,WUHU216HW,2013-09-02 23:03:00,
2013-09-02 18:08:00,94.9,67.5,29.55,NE,45,1.3,6.0,41,0.00,,,0.00,WUHU216HW,2013-09-02 23:08:00,
2013-09-02 18:13:00,94.7,67.3,29.55,NE,45,1.1,5.6,41,0.00,,,0.00,WUHU216HW,2013-09-02 23:13:00,
2013-09-02 18:18:00,94.5,67.2,29.55,East,90,4.0,5.1,41,0.00,,,0.00,WUHU216HW,2013-09-02 23:18:00,
2013-09-02 18:23:00,94.5,67.2,29.55,NE,45,2.9,6.3,41,0.00,,,0.00,WUHU216HW,2013-09-02 23:23:00,
2013-09-02 18:28:00,94.5,67.8,29.55,NE,45,1.1,6.3,42,0.00,,,0.00,WUHU216HW,2013-09-02 23:28:00,
2013-09-02 18:33:00,94.9,67.5,29.55,East,90,3.6,5.4,41,0.00,,,0.00,WUHU216HW,2013-09-02 23:33:00,
2013-09-02 18:38:00,95.4,68.0,29.55,ENE,68,3.1,4.7,41,0.00,,,0.00,WUHU216HW,2013-09-02 23:38:00,
2013-09-02 18:43:00,95.4,68.0,29.55,NE,45,2.7,4.7,41,0.00,,,0.00,WUHU216HW,2013-09-02 23:43:00,
2013-09-02 18:48:00,95.2,67.8,29.55,ENE,68,2.5,4.7,41,0.00,,,0.00,WUHU216HW,2013-09-02 23:48:00,
2013-09-02 18:53:00,95.0,67.6,29.56,ENE,68,6.3,6.3,41,0.00,,,0.00,WUHU216HW,2013-09-02 23:53:00,
2013-09-02 18:58:00,95.0,67.6,29.56,NNE,23,2.5,6.3,41,0.00,,,0.00,WUHU216HW,2013-09-02 23:58:00,
2013-09-02 19:03:00,94.9,68.1,29.56,NE,45,2.5,6.3,42,0.00,,,0.00,WUHU216HW,2013-09-03 00:03:00,
2013-09-02 19:08:00,94.5,67.8,29.56,NNE,23,2.7,4.7,42,0.00,,,0.00,WUHU216HW,2013-09-03 00:08:00,
2013-09-02 19:13:00,94.5,67.8,29.56,NE,45,1.1,4.7,42,0.00,,,0.00,WUHU216HW,2013-09-03 00:13:00,
2013-09-02 19:18:00,94.9,68.1,29.57,ENE,68,0.4,4.7,42,0.00,,,0.00,WUHU216HW,2013-09-03 00:18:00,
2013-09-02 19:23:00,95.0,68.9,29.57,SSW,203,2.5,7.2,43,0.00,,,0.00,WUHU216HW,2013-09-03 00:23:00,
2013-09-02 19:28:00,93.8,69.8,29.56,SSW,203,7.6,9.6,46,0.00,,,0.00,WUHU216HW,2013-09-03 00:28:00,
2013-09-02 19:33:00,92.9,69.6,29.56,NW,315,1.3,9.6,47,0.00,,,0.00,WUHU216HW,2013-09-03 00:33:00,
2013-09-02 19:38:00,92.5,69.2,29.56,West,270,0.9,8.5,47,0.00,,,0.00,WUHU216HW,2013-09-03 00:38:00,
2013-09-02 19:43:00,92.3,69.0,29.56,West,270,1.8,5.6,47,0.00,,,0.00,WUHU216HW,2013-09-03 00:43:00,
2013-09-02 19:48:00,92.0,68.8,29.57,South,180,1.1,4.5,47,0.00,,,0.00,WUHU216HW,2013-09-03 00:48:00,
2013-09-02 19:53:00,91.8,69.2,29.57,West,270,2.0,4.5,48,0.00,,,0.00,WUHU216HW,2013-09-03 00:53:00,
2013-09-02 19:58:00,91.3,68.8,29.58,NW,315,0.9,3.4,48,0.00,,,0.00,WUHU216HW,2013-09-03 00:58:00,
2013-09-02 20:03:00,91.4,69.6,29.58,WNW,293,0.0,3.4,49,0.00,,,0.00,WUHU216HW,2013-09-03 01:03:00,
2013-09-02 20:08:00,91.6,69.0,29.60,SE,135,6.5,9.8,48,0.00,,,0.00,WUHU216HW,2013-09-03 01:08:00,
2013-09-02 20:13:00,90.5,69.4,29.60,SE,135,4.5,9.8,50,0.00,,,0.00,WUHU216HW,2013-09-03 01:13:00,
2013-09-02 20:18:00,90.2,69.0,29.60,SSE,158,3.4,7.6,50,0.00,,,0.00,WUHU216HW,2013-09-03 01:18:00,
2013-09-02 20:23:00,89.6,69.1,29.60,SE,135,3.8,6.9,51,0.00,,,0.00,WUHU216HW,2013-09-03 01:23:00,
2013-09-02 20:28:00,88.2,69.0,29.61,ESE,113,9.6,9.6,53,0.00,,,0.00,WUHU216HW,2013-09-03 01:28:00,
2013-09-02 20:33:00,86.8,68.7,29.61,SE,135,9.2,9.6,55,0.00,,,0.00,WUHU216HW,2013-09-03 01:33:00,
2013-09-02 20:38:00,85.5,70.6,29.62,SE,135,5.4,9.8,61,0.00,,,0.00,WUHU216HW,2013-09-03 01:38:00,
2013-09-02 20:43:00,83.9,71.7,29.62,East,90,6.9,9.8,67,0.00,,,0.00,WUHU216HW,2013-09-03 01:43:00,
2013-09-02 20:48:00,82.1,71.3,29.63,ESE,113,6.3,9.8,70,0.01,,,0.01,WUHU216HW,2013-09-03 01:48:00,
2013-09-02 20:53:00,80.8,72.2,29.63,SE,135,6.3,9.2,75,0.02,,,0.02,WUHU216HW,2013-09-03 01:53:00,
2013-09-02 20:58:00,80.5,71.8,29.63,SE,135,4.7,9.2,75,0.02,,,0.02,WUHU216HW,2013-09-03 01:58:00,
2013-09-02 21:03:00,80.5,72.2,29.63,South,180,4.7,6.7,76,0.03,,,0.03,WUHU216HW,2013-09-03 02:03:00,
2013-09-02 21:08:00,80.5,73.0,29.63,SSW,203,3.1,6.5,78,0.03,,,0.03,WUHU216HW,2013-09-03 02:08:00,
2013-09-02 21:13:00,79.9,72.5,29.63,WSW,248,5.1,6.9,78,0.03,,,0.03,WUHU216HW,2013-09-03 02:13:00,
2013-09-02 21:18:00,80.1,72.3,29.63,SW,225,4.0,6.9,77,0.03,,,0.03,WUHU216HW,2013-09-03 02:18:00,
2013-09-02 21:23:00,80.3,72.5,29.63,SSW,203,4.0,6.5,77,0.03,,,0.03,WUHU216HW,2013-09-03 02:23:00,
2013-09-02 21:28:00,80.1,71.8,29.63,WSW,248,1.6,4.3,76,0.03,,,0.03,WUHU216HW,2013-09-03 02:28:00,
2013-09-02 21:33:00,80.3,72.5,29.63,WSW,248,2.5,4.0,77,0.03,,,0.03,WUHU216HW,2013-09-03 02:33:00,
2013-09-02 21:38:00,80.3,71.3,29.64,NE,45,1.8,4.0,74,0.03,,,0.03,WUHU216HW,2013-09-03 02:38:00,
2013-09-02 21:43:00,80.8,70.6,29.64,ESE,113,0.7,4.0,71,0.02,,,0.03,WUHU216HW,2013-09-03 02:43:00,
2013-09-02 21:48:00,81.5,71.6,29.64,ESE,113,0.7,3.6,72,0.02,,,0.03,WUHU216HW,2013-09-03 02:48:00,
2013-09-02 21:53:00,81.9,72.0,29.64,NE,45,3.6,3.6,72,0.01,,,0.03,WUHU216HW,2013-09-03 02:53:00,
2013-09-02 21:58:00,81.5,72.0,29.64,NNE,23,3.1,4.7,73,0.01,,,0.03,WUHU216HW,2013-09-03 02:58:00,
2013-09-02 22:03:00,80.6,71.7,29.64,NE,45,1.6,5.4,74,0.00,,,0.03,WUHU216HW,2013-09-03 03:03:00,
2013-09-02 22:08:00,80.6,71.7,29.65,NNE,23,0.0,5.4,74,0.00,,,0.03,WUHU216HW,2013-09-03 03:08:00,
2013-09-02 22:13:00,80.8,72.5,29.65,South,180,2.9,2.9,76,0.00,,,0.03,WUHU216HW,2013-09-03 03:13:00,
2013-09-02 22:18:00,80.3,72.0,29.65,ESE,113,1.6,3.8,76,0.00,,,0.03,WUHU216HW,2013-09-03 03:18:00,
2013-09-02 22:23:00,79.9,72.9,29.65,SE,135,2.9,4.7,79,0.00,,,0.03,WUHU216HW,2013-09-03 03:23:00,
2013-09-02 22:28:00,79.6,72.9,29.65,SSE,158,3.6,4.7,80,0.00,,,0.03,WUHU216HW,2013-09-03 03:28:00,
2013-09-02 22:33:00,79.2,72.5,29.65,SE,135,2.5,4.7,80,0.00,,,0.03,WUHU216HW,2013-09-03 03:33:00,
2013-09-02 22:38:00,79.0,72.7,29.66,SE,135,3.4,4.7,81,0.00,,,0.03,WUHU216HW,2013-09-03 03:38:00,
2013-09-02 22:43:00,79.7,72.3,29.66,SE,135,1.6,4.7,78,0.00,,,0.03,WUHU216HW,2013-09-03 03:43:00,
2013-09-02 22:48:00,80.6,72.8,29.65,ESE,113,1.1,3.1,77,0.00,,,0.03,WUHU216HW,2013-09-03 03:48:00,
2013-09-02 22:53:00,80.8,72.2,29.66,SE,135,1.8,2.2,75,0.00,,,0.03,WUHU216HW,2013-09-03 03:53:00,
2013-09-02 22:58:00,80.5,72.2,29.66,SE,135,2.7,4.0,76,0.00,,,0.03,WUHU216HW,2013-09-03 03:58:00,
2013-09-02 23:01:00,80.1,71.8,29.66,SE,135,3.1,4.0,76,0.00,,,0.03,WUHU216HW,2013-09-03 04:01:00,
2013-09-02 23:06:00,79.9,71.3,29.66,SE,135,1.3,4.0,75,0.00,,,0.03,WUHU216HW,2013-09-03 04:06:00,
2013-09-02 23:11:00,79.9,72.9,29.66,SE,135,1.8,3.4,79,0.00,,,0.03,WUHU216HW,2013-09-03 04:11:00,
2013-09-02 23:16:00,79.4,72.7,29.66,SSE,158,1.8,2.9,80,0.00,,,0.03,WUHU216HW,2013-09-03 04:16:00,
2013-09-02 23:21:00,79.2,72.2,29.66,SSE,158,1.1,3.4,79,0.00,,,0.03,WUHU216HW,2013-09-03 04:21:00,
2013-09-02 23:26:00,79.2,72.5,29.66,SSE,158,2.5,3.4,80,0.00,,,0.03,WUHU216HW,2013-09-03 04:26:00,
2013-09-02 23:31:00,79.7,73.1,29.67,SE,135,1.1,2.5,80,0.00,,,0.03,WUHU216HW,2013-09-03 04:31:00,
2013-09-02 23:36:00,80.6,73.2,29.66,SE,135,0.0,2.5,78,0.00,,,0.03,WUHU216HW,2013-09-03 04:36:00,
2013-09-02 23:41:00,81.0,73.5,29.67,SE,135,0.0,1.6,78,0.00,,,0.03,WUHU216HW,2013-09-03 04:41:00,
2013-09-02 23:46:00,80.8,73.0,29.67,SSW,203,0.9,1.1,77,0.00,,,0.03,WUHU216HW,2013-09-03 04:46:00,
2013-09-02 23:51:00,80.6,72.4,29.67,SSW,203,1.8,1.8,76,0.00,,,0.03,WUHU216HW,2013-09-03 04:51:00,
2013-09-02 23:56:00,80.5,72.2,29.67,SW,225,0.9,2.2,76,0.00,,,0.03,WUHU216HW,2013-09-03 04:56:00,